This demonstration page uses our WeatherBlox Daily Observations layout. Learn more.

Left ArrowRight Arrow

39.01783, -85.05884

Hourly Observations for August 17, 2015

Temp ( °F °C ) Dew Point ( °F °C ) Humidity (%) Winds ( mph kmh ) Pressure ( in mb ) Visibility ( mi km ) Precip ( " mm )
12:52 am 00:52 Clear 73 22.8 67 19.4 81 81 N N/A 30.11 1020 10 16.0934 N/A
1:52 am 01:52 Clear 72 22.2 67 19.4 84 84 N N/A 30.1 1019 10 16.0934 N/A
2:52 am 02:52 Mostly Clear 71 21.7 67 19.4 87 87 N N/A 30.09 1019 9 14.48406 N/A
3:52 am 03:52 Mostly Clear 69 20.6 66 18.9 90 90 N N/A 30.09 1019 8 12.87472 N/A
4:52 am 04:52 Cloudy 71 21.7 68 20 90 90 N N/A 30.08 1019 7 11.26538 N/A
5:52 am 05:52 Cloudy 71 21.7 67 19.4 87 87 N N/A 30.08 1019 8 12.87472 N/A
6:52 am 06:52 Mostly Cloudy with Mist and Fog 69 20.6 67 19.4 93 93 N N/A 30.09 1019 6 9.65604 N/A
7:52 am 07:52 Cloudy 71 21.7 68 20 90 90 SSW 3 6 30.11 1020 7 11.26538 N/A
8:52 am 08:52 Cloudy 75 23.9 69 20.6 82 82 S 3 6 30.11 1020 8 12.87472 N/A
9:52 am 09:52 Mostly Cloudy 81 27.2 69 20.6 67 67 N N/A 30.11 1020 10 16.0934 N/A
10:52 am 10:52 Mostly Cloudy 82 27.8 70 21.1 67 67 SSW 5 7 30.11 1020 10 16.0934 N/A
11:52 am 11:52 Cloudy 82 27.8 71 21.7 69 69 W 6 9 30.11 1020 9 14.48406 N/A
12:52 pm 12:52 Cloudy 81 27.2 71 21.7 72 72 W 3 6 30.09 1019 9 14.48406 N/A
1:52 pm 13:52 Cloudy 80 26.7 70 21.1 71 71 SW 5 7 30.09 1019 8 12.87472 N/A
2:52 pm 14:52 Cloudy 80 26.7 71 21.7 74 74 S 6 9 30.07 1018 9 14.48406 N/A
3:52 pm 15:52 Cloudy 81 27.2 70 21.1 69 69 SW 5 7 30.05 1018 10 16.0934 N/A
4:52 pm 16:52 Cloudy 79 26.1 69 20.6 72 72 SW 8 13 30.04 1017 10 16.0934 N/A
5:52 pm 17:52 Cloudy 78 25.6 70 21.1 76 76 SSW 6 9 30.04 1017 10 16.0934 N/A
6:52 pm 18:52 Cloudy 78 25.6 70 21.1 76 76 SSW 5 7 30.03 1017 10 16.0934 N/A
7:52 pm 19:52 Cloudy 78 25.6 69 20.6 74 74 S 5 7 30.03 1017 10 16.0934 N/A
8:52 pm 20:52 Mostly Cloudy 74 23.3 69 20.6 85 85 S 3 6 30.02 1017 10 16.0934 N/A
9:52 pm 21:52 Partly Cloudy 73 22.8 69 20.6 87 87 SSE 3 6 30.02 1017 9 14.48406 N/A
10:52 pm 22:52 Partly Cloudy 70 21.1 68 20 93 93 S 5 7 30.02 1017 8 12.87472 N/A
11:52 pm 23:52 Cloudy 71 21.7 68 20 90 90 S 5 7 30.01 1016 9 14.48406 N/A

Powered by AerisWeather